[[{"header":{"parameterUnit":"m.s-1","parameterCategory":1,"la1":30.2991,"la2":30.254,"lo1":-89.0895,"lo2":-89.0444,"dy":0.0017,"dx":0.0017,"nx":28,"ny":28,"refTime":"2025-07-08T21:00:00:Z","depth":0,"parameterNumber":2,"parameterNumberName":"U-component_of_WINDS"},"data":[0,0,0,0,0,0,0,0,0,0,0,0,0,0,0,0,0,0,0,0,0,0,0,0,0,0,0,0,0,0,0,0,0,0,0,0,0,0,0,0,0,0,0,0,0,0,0,0,0,0,0,0,0,0,0,0,0,0,3.7174,3.7175,0,3.729,3.7291,3.7293,3.7253,3.7251,3.7248,3.7246,3.7365,3.737,3.7376,0,0,0,0,0,0,0,0,0,0,0,0,0,3.6917,3.6922,3.7174,3.7175,3.7177,3.729,3.7291,3.7293,3.7254,3.7251,3.7248,3.7245,3.7363,3.737,3.7376,0,0,0,0,0,0,0,0,0,0,0,0,0,3.703,3.6923,3.7173,3.7171,3.7172,3.7289,3.7291,3.7293,3.7255,3.7251,3.7247,3.7243,3.7361,3.7369,3.7377,3.7504,0,0,3.7403,3.7406,0,0,0,0,0,0,0,0,3.7024,3.704,3.717,3.7171,3.7172,3.7253,3.7244,3.7364,3.7256,3.7223,3.7246,3.7242,3.7331,3.7341,3.7372,3.751,3.7515,3.7403,3.7408,3.7412,3.7414,0,0,0,0,0,0,0,3.7016,3.7034,3.722,3.7172,3.7173,3.7163,3.7175,3.7267,3.7297,3.7226,3.7223,3.7237,3.7331,3.7364,3.7374,3.7517,3.7403,3.741,3.7416,3.7419,3.7763,3.7767,0,0,0,0,0,0,3.7008,3.7028,3.7216,3.7223,3.7087,3.7171,3.7184,3.7231,3.7296,3.7302,3.724,3.7235,3.7351,3.7364,3.7378,3.7529,3.7412,3.742,3.7424,3.7759,3.7764,3.7768,0,0,0,0,0,0,3.7002,3.7025,3.7211,3.7125,3.7148,3.718,3.7232,3.7235,3.7268,3.7307,3.7312,3.7269,3.7349,3.7366,3.7473,3.7533,3.7423,3.7431,3.7754,3.776,3.7766,3.7835,0,0,0,0,0,0,3.6995,3.7023,3.7072,3.7126,3.7153,3.7305,3.7236,3.724,3.7283,3.7277,3.7335,3.7341,3.7347,3.7461,3.7481,3.7543,3.7437,3.7749,3.7757,3.7764,3.7827,3.7842,3.7855,0,0,0,0,0,3.6986,3.7087,3.7075,3.7098,3.7215,3.7308,3.7323,3.7329,3.7288,3.7337,3.7361,3.7339,3.7523,3.7472,3.7495,3.7559,3.7745,3.7755,3.7764,3.7821,3.7839,3.7855,0,0,0,0,0,0,3.704,3.7094,3.7081,3.7203,3.7251,3.7301,3.7364,3.7349,3.741,3.7402,3.7406,3.7419,3.7528,3.7555,3.7496,3.7685,3.7628,3.7642,3.7663,3.7682,3.7696,3.7686,3.7444,0,0,0,0,0,3.7066,3.7137,3.7181,3.7284,3.7309,3.7333,3.7373,3.7373,3.7423,3.7444,3.7476,3.7525,3.7594,3.7639,3.7705,3.7831,3.7842,3.7887,3.7901,3.7912,3.7924,3.799,3.801,3.7799,3.7799,3.7799,0,0,3.712,3.7159,3.7204,3.7296,3.7333,3.7407,3.735,3.743,3.7484,3.7456,3.7558,3.7583,3.7638,3.7754,3.7807,3.778,3.7985,3.7924,3.7933,3.7939,3.8002,3.8022,3.804,3.7806,3.7805,3.7804,0,0,3.7257,3.7294,3.7383,3.7421,3.7478,3.7493,3.7514,3.7566,3.7582,3.7684,3.7664,3.7728,3.7847,3.7886,3.7922,3.8072,3.8052,3.8093,3.8167,3.8232,3.8248,3.8263,3.8314,3.8333,3.8105,3.8105,3.8106,0,3.7317,3.7427,3.7431,3.7513,3.7553,3.753,3.7619,3.7656,3.7732,3.776,3.7728,3.7876,3.7912,3.8035,3.8071,3.8102,3.8125,3.8086,3.8245,3.826,3.8274,3.8323,3.8343,3.811,3.8109,3.8109,3.8108,0,3.7498,3.7574,3.7639,3.7712,3.776,3.7845,3.7861,3.7909,3.7904,3.7922,3.8025,3.8067,3.814,3.8169,3.8166,3.8292,3.8273,3.8244,3.8186,3.8298,3.8344,3.8364,3.8116,3.8115,3.8113,3.8112,0,0,3.7672,3.7744,3.7768,3.78,3.786,3.7919,3.8002,3.8073,3.8113,3.8166,3.8235,3.8336,3.8308,3.8348,3.8349,3.8406,3.8519,3.8369,3.837,3.8394,3.8658,3.8679,3.8701,3.8507,3.8511,3.8514,3.8653,0,3.7812,3.7959,3.7964,3.8097,3.8167,3.8145,3.8218,3.8262,3.828,3.8341,3.8362,3.8432,3.8391,3.8415,3.847,3.8494,3.8572,3.8484,3.857,3.8573,3.8556,3.8725,3.8748,3.8878,3.8671,3.8674,3.8677,0,3.7995,3.8053,3.8193,3.8241,3.827,3.8336,3.8399,3.8459,3.8508,3.8517,3.8562,3.8554,3.8638,3.8578,3.8694,3.8633,3.8669,3.8686,3.8691,3.8698,3.8631,3.8736,3.8919,3.8938,3.8705,3.8703,3.8701,0,3.8106,3.8218,3.8316,3.8344,3.8404,3.8449,3.8476,3.8522,3.8563,3.8619,3.8646,3.8711,3.8747,3.8797,3.8806,3.8763,3.8921,3.8863,3.893,3.893,3.8964,3.8961,3.9154,3.8989,3.8989,3.8989,3.8988,0,3.8261,3.8348,3.8366,3.8427,3.8522,3.8526,3.8621,3.8644,3.8684,3.8748,3.8733,3.8793,3.8803,3.8865,3.8873,3.8965,3.8982,3.8991,3.8992,3.8991,3.899,3.9014,3.9004,3.8994,3.8993,3.8992,3.8991,0,3.8401,3.8417,3.8522,3.8569,3.8583,3.8651,3.8691,3.8748,3.8764,3.8844,3.8863,3.8889,3.8961,3.8975,3.906,3.9066,3.9175,3.9168,3.9159,3.9157,3.9223,3.9216,3.9437,3.9465,3.9283,3.9285,3.9286,0,3.8498,3.8564,3.8617,3.8659,3.8687,3.8754,3.8796,3.8803,3.8847,3.8906,3.8956,3.9026,3.9082,3.9198,3.9223,3.9288,3.9281,3.9354,3.9291,3.9287,3.928,3.9275,3.9281,3.9366,3.9368,3.9369,3.9371,0,3.8669,3.8673,3.8734,3.8797,3.8847,3.8897,3.8945,3.898,3.8992,3.9042,3.9115,3.9159,3.9245,3.9314,3.9378,3.9405,3.939,3.939,3.9409,3.9408,3.9399,3.9403,3.919,3.9385,3.9384,3.9382,3.9382,3.9381,3.8789,3.8845,3.8891,3.8959,3.8995,3.904,3.9095,3.9117,3.9178,3.9248,3.9248,3.9327,3.9373,3.9457,3.9488,3.9549,3.9526,3.9554,3.956,3.9567,3.9572,3.9391,3.9561,3.9561,3.9561,3.956,3.956,0,3.8957,3.8985,3.9047,3.9114,3.9166,3.9147,3.9198,3.9244,3.9313,3.9357,3.9412,3.9495,3.9561,3.9592,3.9657,3.97,3.9694,3.9717,3.9713,3.9719,3.959,3.9566,3.972,3.972,3.972,3.972,3.972,3.972,3.9051,3.9144,3.9154,3.9264,3.9292,3.9369,3.9399,3.944,3.9474,3.9567,3.9622,3.9641,3.9679,3.9746,3.9806,3.9813,3.9837,3.9862,3.9866,3.9744,3.9728,3.9713,3.969,3.9868,3.9868,3.999,3.9991,3.9992]},{"header":{"parameterUnit":"m.s-1","parameterCategory":1,"la1":30.2991,"la2":30.254,"lo1":-89.0895,"lo2":-89.0444,"dy":0.0017,"dx":0.0017,"nx":28,"ny":28,"refTime":"2025-07-08T21:00:00:Z","depth":0,"parameterNumber":3,"parameterNumberName":"V-component_of_WINDS"},"data":[0,0,0,0,0,0,0,0,0,0,0,0,0,0,0,0,0,0,0,0,0,0,0,0,0,0,0,0,0,0,0,0,0,0,0,0,0,0,0,0,0,0,0,0,0,0,0,0,0,0,0,0,0,0,0,0,0,0,-0.7967,-0.7967,0,-0.8035,-0.8036,-0.8036,-0.8058,-0.8057,-0.8057,-0.8057,-0.8128,-0.813,-0.8132,0,0,0,0,0,0,0,0,0,0,0,0,0,-0.7858,-0.7859,-0.7967,-0.7967,-0.7968,-0.8035,-0.8036,-0.8037,-0.8058,-0.8057,-0.8057,-0.8057,-0.8127,-0.813,-0.8133,0,0,0,0,0,0,0,0,0,0,0,0,0,-0.7913,-0.786,-0.7966,-0.7987,-0.7989,-0.8034,-0.8036,-0.8037,-0.8058,-0.8057,-0.8057,-0.8056,-0.8127,-0.813,-0.8133,-0.8163,0,0,-0.8143,-0.8145,0,0,0,0,0,0,0,0,-0.791,-0.7917,-0.7983,-0.7986,-0.7988,-0.8037,-0.8023,-0.8079,-0.8058,-0.8032,-0.8057,-0.8056,-0.8098,-0.8104,-0.8118,-0.8166,-0.817,-0.8143,-0.8145,-0.8147,-0.8148,0,0,0,0,0,0,0,-0.7906,-0.7914,-0.7994,-0.7984,-0.7987,-0.7994,-0.8001,-0.8034,-0.8067,-0.8034,-0.8036,-0.8044,-0.81,-0.8115,-0.812,-0.8171,-0.8143,-0.8146,-0.8148,-0.815,-0.8249,-0.8249,0,0,0,0,0,0,-0.7899,-0.7911,-0.7991,-0.7996,-0.7947,-0.7996,-0.8004,-0.8022,-0.8067,-0.8073,-0.8044,-0.8044,-0.8109,-0.8116,-0.8122,-0.8161,-0.8147,-0.815,-0.8152,-0.8248,-0.8249,-0.825,0,0,0,0,0,0,-0.7896,-0.7905,-0.7989,-0.7954,-0.7965,-0.7998,-0.8018,-0.8024,-0.8038,-0.8074,-0.808,-0.8053,-0.8109,-0.8118,-0.8153,-0.8164,-0.8151,-0.8154,-0.8247,-0.8248,-0.8249,-0.8238,0,0,0,0,0,0,-0.7893,-0.7904,-0.7915,-0.7954,-0.7967,-0.8017,-0.8019,-0.8025,-0.8044,-0.8045,-0.8084,-0.809,-0.8109,-0.8148,-0.8156,-0.8168,-0.8157,-0.8246,-0.8248,-0.8249,-0.8238,-0.8239,-0.8239,0,0,0,0,0,-0.7889,-0.791,-0.7916,-0.7926,-0.7981,-0.8018,-0.8025,-0.8046,-0.8045,-0.8057,-0.808,-0.8089,-0.8161,-0.8151,-0.8161,-0.8174,-0.8246,-0.8247,-0.8249,-0.8237,-0.8238,-0.8239,0,0,0,0,0,0,-0.7872,-0.7915,-0.7922,-0.7956,-0.7983,-0.8021,-0.8037,-0.8047,-0.8075,-0.8075,-0.8101,-0.811,-0.8143,-0.8162,-0.815,-0.8206,-0.8204,-0.8208,-0.8192,-0.8193,-0.8194,-0.8189,-0.816,0,0,0,0,0,-0.7872,-0.7898,-0.7934,-0.7961,-0.7974,-0.8003,-0.802,-0.8034,-0.8063,-0.8075,-0.8101,-0.8129,-0.8159,-0.8177,-0.8206,-0.8241,-0.825,-0.8255,-0.8256,-0.8256,-0.8259,-0.8279,-0.8282,-0.8254,-0.8254,-0.8254,0,0,-0.7873,-0.79,-0.7914,-0.7958,-0.7981,-0.8007,-0.8012,-0.804,-0.8061,-0.8079,-0.8114,-0.8134,-0.8168,-0.8203,-0.822,-0.822,-0.8268,-0.8258,-0.8258,-0.826,-0.8281,-0.8284,-0.8286,-0.8255,-0.8255,-0.8255,0,0,-0.7888,-0.791,-0.7935,-0.7958,-0.7992,-0.8011,-0.8017,-0.8054,-0.8068,-0.8103,-0.8118,-0.8143,-0.8193,-0.8217,-0.8235,-0.826,-0.827,-0.8269,-0.8274,-0.8293,-0.8296,-0.8298,-0.8307,-0.831,-0.8272,-0.8272,-0.8272,0,-0.7884,-0.7924,-0.7946,-0.7974,-0.7993,-0.8011,-0.8037,-0.8058,-0.81,-0.8113,-0.8113,-0.8176,-0.82,-0.8242,-0.8248,-0.8262,-0.8271,-0.8264,-0.8293,-0.8296,-0.8298,-0.8307,-0.831,-0.8272,-0.8272,-0.8272,-0.8272,0,-0.7918,-0.7946,-0.7962,-0.8002,-0.8023,-0.8049,-0.8077,-0.8096,-0.8109,-0.8128,-0.8165,-0.8195,-0.823,-0.8241,-0.8254,-0.8285,-0.8284,-0.8288,-0.8287,-0.83,-0.8309,-0.8313,-0.8271,-0.8271,-0.8271,-0.8271,0,0,-0.7923,-0.7976,-0.7981,-0.8,-0.8039,-0.8062,-0.809,-0.8124,-0.814,-0.8169,-0.8193,-0.8236,-0.824,-0.8261,-0.8277,-0.8295,-0.8313,-0.8297,-0.8298,-0.8299,-0.835,-0.8346,-0.835,-0.8321,-0.8321,-0.8322,-0.8347,0,-0.7943,-0.7992,-0.8014,-0.8054,-0.808,-0.8099,-0.8123,-0.8151,-0.817,-0.8196,-0.8219,-0.8248,-0.8252,-0.8265,-0.8283,-0.8307,-0.8324,-0.8306,-0.8344,-0.8345,-0.8334,-0.8355,-0.8351,-0.8373,-0.8351,-0.8352,-0.8352,0,-0.7972,-0.8,-0.8043,-0.808,-0.8092,-0.8113,-0.8147,-0.8172,-0.8204,-0.8217,-0.8241,-0.8257,-0.8288,-0.8285,-0.8329,-0.8316,-0.8333,-0.8348,-0.8349,-0.8353,-0.8349,-0.8359,-0.8381,-0.8384,-0.8358,-0.8357,-0.8357,0,-0.7971,-0.802,-0.8052,-0.8068,-0.8112,-0.8127,-0.8146,-0.8178,-0.8197,-0.8228,-0.8241,-0.8274,-0.8293,-0.8319,-0.8343,-0.8339,-0.8385,-0.8384,-0.8397,-0.8397,-0.8406,-0.8405,-0.843,-0.8417,-0.8417,-0.8417,-0.8417,0,-0.799,-0.8016,-0.8053,-0.8072,-0.8102,-0.8127,-0.8156,-0.8176,-0.8205,-0.8229,-0.8248,-0.8271,-0.8302,-0.8329,-0.8349,-0.8383,-0.8391,-0.8403,-0.8408,-0.8401,-0.84,-0.8412,-0.8411,-0.8418,-0.8418,-0.8418,-0.8418,0,-0.7994,-0.802,-0.8056,-0.8095,-0.8105,-0.8125,-0.8159,-0.818,-0.8201,-0.8232,-0.8241,-0.8274,-0.8308,-0.8335,-0.8379,-0.8392,-0.8427,-0.8433,-0.8416,-0.8418,-0.843,-0.8429,-0.8464,-0.8471,-0.8454,-0.8454,-0.8454,0,-0.8004,-0.8024,-0.8066,-0.8083,-0.8102,-0.813,-0.8151,-0.8177,-0.8197,-0.8236,-0.8252,-0.8287,-0.8316,-0.8368,-0.8397,-0.8431,-0.8438,-0.8448,-0.8443,-0.8436,-0.8438,-0.8436,-0.8439,-0.8448,-0.8448,-0.8448,-0.8448,0,-0.802,-0.8032,-0.806,-0.8093,-0.8116,-0.8144,-0.8172,-0.8185,-0.8217,-0.8239,-0.8273,-0.8296,-0.8341,-0.8375,-0.8412,-0.8433,-0.8446,-0.845,-0.8455,-0.8448,-0.8437,-0.8443,-0.8417,-0.8449,-0.8449,-0.8449,-0.8448,-0.8448,-0.8027,-0.8046,-0.8078,-0.8109,-0.8133,-0.8159,-0.818,-0.8204,-0.8233,-0.8271,-0.8285,-0.832,-0.8353,-0.8404,-0.8426,-0.8454,-0.8456,-0.8463,-0.8465,-0.8466,-0.8465,-0.8433,-0.8461,-0.8461,-0.8462,-0.8462,-0.8462,0,-0.8044,-0.8066,-0.8094,-0.8132,-0.8157,-0.8167,-0.8199,-0.8219,-0.8249,-0.8279,-0.8307,-0.8347,-0.8381,-0.8412,-0.8448,-0.8465,-0.8472,-0.8474,-0.8472,-0.8477,-0.8462,-0.8454,-0.8467,-0.8467,-0.8467,-0.8467,-0.8467,-0.8467,-0.8055,-0.8088,-0.8104,-0.8149,-0.8171,-0.8205,-0.8222,-0.8247,-0.827,-0.8314,-0.8342,-0.8362,-0.8393,-0.8431,-0.8463,-0.8472,-0.8484,-0.8484,-0.8494,-0.8479,-0.8478,-0.8477,-0.847,-0.8487,-0.8487,-0.8508,-0.8508,-0.8508]}]]